| time (UTC) | temp F | wind direction | speed MPH | gust MPH | rain 1hr in | rain 24hr in | rain mn in | humidity % | barometer mb |
| 20260505204505 | 82 | 72 | 2.0 | 2.0 | 0.00 | 0.00 | 0.00 | 93 | 1010.0 |
| 20260505203005 | 82 | 72 | 2.0 | 2.0 | 0.00 | 0.00 | 0.00 | 93 | 1010.0 |
| 20260505201504 | 83 | 71 | 1.0 | 1.0 | 0.00 | 0.00 | 0.00 | 91 | 1010.0 |
| 20260505200006 | 83 | 71 | 1.0 | 1.0 | 0.00 | 0.00 | 0.00 | 93 | 1010.0 |
| 20260505194504 | 83 | 71 | 1.0 | 1.0 | 0.00 | 0.00 | 0.00 | 91 | 1010.0 |
| 20260505193005 | 83 | 71 | 1.0 | 1.0 | 0.00 | 0.00 | 0.00 | 92 | 1010.0 |
| 20260505191504 | 83 | 65 | 1.0 | 1.0 | 0.00 | 0.00 | 0.00 | 85 | 1010.0 |
| 20260505190005 | 82 | 65 | 1.0 | 1.0 | 0.00 | 0.00 | 0.00 | 90 | 1010.0 |
| 20260505184559 | 80 | 65 | 1.0 | 1.0 | 0.00 | 0.00 | 0.00 | 80 | 1010.0 |
| 20260505183100 | 80 | 65 | 1.0 | 1.0 | 0.00 | 0.00 | 0.00 | 81 | 1010.0 |
| 20260505181559 | 83 | 46 | 2.0 | 1.0 | 0.00 | 0.00 | 0.00 | 91 | 1011.0 |
| 20260505180100 | 83 | 46 | 2.0 | 1.0 | 0.00 | 0.00 | 0.00 | 92 | 1011.0 |
| 20260505174600 | 83 | 46 | 2.0 | 1.0 | 0.00 | 0.00 | 0.00 | 92 | 1011.0 |
| 20260505173059 | 83 | 46 | 2.0 | 1.0 | 0.00 | 0.00 | 0.00 | 92 | 1011.0 |
| 20260505171559 | 83 | 37 | 2.0 | 1.0 | 0.00 | 0.00 | 0.00 | 91 | 1012.0 |
| 20260505164600 | 83 | 37 | 2.0 | 1.0 | 0.00 | 0.00 | 0.00 | 92 | 1012.0 |
| 20260505163101 | 83 | 37 | 2.0 | 1.0 | 0.00 | 0.00 | 0.00 | 92 | 1012.0 |
| 20260505161600 | 83 | 41 | 1.0 | 0.0 | 0.00 | 0.00 | 0.00 | 91 | 1012.0 |
| 20260505160106 | 83 | 41 | 1.0 | 0.0 | 0.00 | 0.00 | 0.00 | 92 | 1012.0 |
| 20260505153104 | 84 | 41 | 1.0 | 0.0 | 0.00 | 0.00 | 0.00 | 92 | 1012.0 |
| 20260505151600 | 84 | 24 | 1.0 | 0.0 | 0.00 | 0.00 | 0.00 | 90 | 1012.0 |
| 20260505150109 | 84 | 24 | 1.0 | 0.0 | 0.00 | 0.00 | 0.00 | 92 | 1012.0 |
| 20260505140106 | 84 | 2 | 2.0 | 0.0 | 0.00 | 0.00 | 0.00 | 92 | 1012.0 |
| 20260505130109 | 84 | 352 | 2.0 | 1.0 | 0.00 | 0.00 | 0.00 | 92 | 1011.0 |
| 20260505124602 | 84 | 352 | 2.0 | 1.0 | 0.00 | 0.00 | 0.00 | 92 | 1011.0 |
| 20260505123105 | 85 | 352 | 2.0 | 1.0 | 0.00 | 0.00 | 0.00 | 92 | 1011.0 |
| 20260505121602 | 84 | 1 | 2.0 | 0.0 | 0.00 | 0.00 | 0.00 | 90 | 1010.0 |
| 20260505120112 | 85 | 1 | 2.0 | 0.0 | 0.00 | 0.00 | 0.00 | 92 | 1010.0 |
| 20260505114605 | 85 | 1 | 2.0 | 0.0 | 0.00 | 0.00 | 0.00 | 92 | 1010.0 |
| 20260505113115 | 85 | 350 | 1.0 | 1.0 | 0.00 | 0.00 | 0.00 | 92 | 1010.0 |
| 20260505111606 | 85 | 277 | 1.0 | 1.0 | 0.00 | 0.00 | 0.00 | 89 | 1010.0 |
| 20260505110116 | 85 | 277 | 1.0 | 1.0 | 0.00 | 0.00 | 0.00 | 89 | 1010.0 |
| 20260505101605 | 86 | 207 | 2.0 | 3.0 | 0.00 | 0.00 | 0.00 | 87 | 1009.0 |
| 20260505100113 | 86 | 207 | 2.0 | 3.0 | 0.00 | 0.00 | 0.00 | 87 | 1009.0 |
| 20260505094607 | 86 | 207 | 2.0 | 3.0 | 0.00 | 0.00 | 0.00 | 87 | 1009.0 |
| 20260505093108 | 84 | 220 | 3.0 | 2.0 | 0.00 | 0.00 | 0.00 | 79 | 1009.0 |
| 20260505091605 | 84 | 220 | 3.0 | 2.0 | 0.00 | 0.00 | 0.00 | 79 | 1009.0 |
| 20260505090129 | 84 | 220 | 3.0 | 2.0 | 0.00 | 0.00 | 0.00 | 79 | 1009.0 |
| 20260505084606 | 84 | 220 | 3.0 | 2.0 | 0.00 | 0.00 | 0.00 | 79 | 1009.0 |
| 20260505083110 | 84 | 220 | 3.0 | 2.0 | 0.21 | 0.00 | 0.00 | 79 | 1009.0 |
| 20260505081609 | 84 | 220 | 3.0 | 2.0 | 0.00 | 0.00 | 0.00 | 79 | 1009.0 |
| 20260505080131 | 84 | 220 | 3.0 | 2.0 | 0.01 | 0.00 | 0.00 | 79 | 1009.0 |
| 20260505074608 | 84 | 220 | 3.0 | 2.0 | 0.00 | 0.00 | 0.00 | 79 | 1009.0 |
| 20260505073117 | 84 | 220 | 3.0 | 2.0 | 0.00 | 0.00 | 0.00 | 79 | 1009.0 |
| 20260505071607 | 84 | 220 | 3.0 | 2.0 | 0.00 | 0.00 | 0.00 | 79 | 1009.0 |
| 20260505070129 | 84 | 220 | 3.0 | 2.0 | 0.00 | 0.00 | 0.00 | 79 | 1009.0 |
| 20260505064605 | 84 | 220 | 3.0 | 2.0 | 0.00 | 0.00 | 0.00 | 79 | 1009.0 |
| 20260505063113 | 84 | 220 | 3.0 | 2.0 | 0.00 | 0.00 | 0.00 | 79 | 1009.0 |
| 20260505061608 | 84 | 220 | 3.0 | 2.0 | 0.00 | 0.00 | 0.00 | 79 | 1010.0 |
| 20260505060128 | 84 | 220 | 3.0 | 2.0 | 0.00 | 0.00 | 0.00 | 79 | 1010.0 |
| 20260505054606 | 84 | 220 | 3.0 | 2.0 | 0.00 | 0.00 | 0.00 | 79 | 1010.0 |
| 20260505053109 | 88 | 224 | 3.0 | 2.0 | 0.00 | 0.00 | 0.00 | 80 | 1010.0 |
| 20260505051604 | 88 | 224 | 3.0 | 2.0 | 0.00 | 0.00 | 0.00 | 80 | 1010.0 |
| 20260505050117 | 88 | 224 | 3.0 | 2.0 | 0.00 | 0.00 | 0.00 | 80 | 1010.0 |
| 20260505041555 | 88 | 233 | 2.0 | 2.0 | 0.00 | 0.00 | 0.00 | 82 | 1011.0 |
| 20260505040057 | 88 | 233 | 2.0 | 2.0 | 0.00 | 0.00 | 0.00 | 80 | 1011.0 |
| 20260505034555 | 88 | 233 | 2.0 | 2.0 | 0.00 | 0.00 | 0.00 | 81 | 1011.0 |
| 20260505033056 | 88 | 233 | 2.0 | 2.0 | 0.04 | 0.00 | 0.00 | 80 | 1011.0 |
| 20260505031555 | 88 | 238 | 2.0 | 1.0 | 0.00 | 0.00 | 0.00 | 83 | 1012.0 |
| 20260505030100 | 88 | 238 | 2.0 | 1.0 | 0.00 | 0.00 | 0.00 | 81 | 1012.0 |
| 20260505024555 | 87 | 238 | 2.0 | 1.0 | 0.00 | 0.00 | 0.00 | 82 | 1012.0 |
| 20260505023056 | 88 | 233 | 1.0 | 2.0 | 0.00 | 0.00 | 0.00 | 82 | 1012.0 |
| 20260505021555 | 87 | 233 | 1.0 | 2.0 | 0.02 | 0.00 | 0.00 | 83 | 1012.0 |
| 20260505020059 | 87 | 233 | 1.0 | 2.0 | 0.00 | 0.00 | 0.00 | 82 | 1012.0 |
| 20260505014554 | 87 | 233 | 1.0 | 2.0 | 0.00 | 0.00 | 0.00 | 83 | 1012.0 |
| 20260505013055 | 86 | 206 | 1.0 | 2.0 | 0.00 | 0.00 | 0.00 | 85 | 1012.0 |
| 20260505011554 | 86 | 219 | 1.0 | 2.0 | 0.00 | 0.00 | 0.00 | 85 | 1011.0 |
| 20260505010057 | 85 | 206 | 1.0 | 2.0 | 0.00 | 0.00 | 0.00 | 85 | 1012.0 |
| 20260505004555 | 85 | 219 | 1.0 | 2.0 | 0.00 | 0.00 | 0.00 | 87 | 1011.0 |
| 20260505003055 | 85 | 219 | 1.0 | 2.0 | 0.00 | 0.00 | 0.00 | 85 | 1012.0 |
| 20260505001555 | 84 | 77 | 1.0 | 2.0 | 0.00 | 0.00 | 0.00 | 89 | 1011.0 |
| 20260505000057 | 84 | 77 | 1.0 | 2.0 | 0.00 | 0.00 | 0.00 | 89 | 1011.0 |
| 20260504234554 | 84 | 76 | 1.0 | 2.0 | 0.00 | 0.00 | 0.00 | 89 | 1011.0 |
| 20260504233055 | 84 | 76 | 1.0 | 2.0 | 0.00 | 0.00 | 0.00 | 90 | 1011.0 |
| 20260504231554 | 83 | 49 | 3.0 | 2.0 | 0.00 | 0.00 | 0.00 | 90 | 1010.0 |
| 20260504230056 | 83 | 49 | 3.0 | 2.0 | 0.00 | 0.00 | 0.00 | 91 | 1010.0 |
| 20260504224555 | 83 | 49 | 3.0 | 2.0 | 0.00 | 0.00 | 0.00 | 91 | 1010.0 |
| 20260504223055 | 82 | 36 | 2.0 | 2.0 | 0.00 | 0.00 | 0.00 | 90 | 1010.0 |
| 20260504221554 | 82 | 36 | 2.0 | 2.0 | 0.00 | 0.00 | 0.00 | 90 | 1010.0 |
| 20260504220057 | 82 | 36 | 2.0 | 2.0 | 0.00 | 0.00 | 0.00 | 91 | 1010.0 |
| 20260504214555 | 83 | 36 | 2.0 | 2.0 | 0.00 | 0.00 | 0.00 | 91 | 1010.0 |
| 20260504213055 | 82 | 36 | 2.0 | 2.0 | 0.00 | 0.00 | 0.00 | 92 | 1010.0 |
| 20260504211554 | 82 | 31 | 1.0 | 1.0 | 0.00 | 0.00 | 0.00 | 90 | 1010.0 |
| 20260504210056 | 83 | 31 | 1.0 | 1.0 | 0.00 | 0.00 | 0.00 | 92 | 1010.0 |